Lid_Strength_Index
6 6 5 5 4 4 4 3 3 3 2 2 2 2 2 2 1 2 3 3 4 6 6 5 5 7 7 8 10 8 9 8 10 11 13 13 13 13 13 13 13 13 14 15 14 16 17 8 9 12 10 8 7 7
6 5 5 4 4 4 4 3 3 3 2 2 2 2 2 2 1 2 5 4 3 6 6 4 4 3 4 5 7 7 8 9 8 11 11 11 13 12 13 15 11 13 12 14 12 13 9 9 9 9 8 8 8 7
6 6 6 4 4 4 4 4 3 2 2 2 2 2 2 1 1 2 4 6 6 6 6 6 6 4 3 3 3 8 8 7 8 7 9 10 13 11 14 14 13 11 9 12 11 11 10 8 7 7 7 7 7 6
5 6 6 5 3 4 4 4 2 2 2 2 3 2 2 1 1 2 4 6 7 8 9 7 4 5 2 2 3 4 5 7 7 8 10 11 11 10 12 11 12 10 9 11 11 10 9 8 7 7 7 6 6 6
4 5 6 5 3 3 4 4 3 2 2 2 2 2 2 2 2 2 4 5 6 8 10 8 6 5 4 3 4 4 5 7 8 9 9 11 10 10 10 9 12 9 10 12 12 8 10 8 7 6 6 5 5 5
5 5 5 5 4 4 4 4 3 2 2 2 2 2 2 2 3 4 7 5 6 6 9 11 7 5 5 4 4 5 5 6 7 9 9 8 8 9 12 12 9 8 7 8 8 7 8 6 6 5 6 5 4 4
5 5 5 5 4 4 4 3 3 1 1 1 2 2 2 3 4 6 7 6 5 6 8 11 10 7 6 7 6 6 6 7 7 8 9 9 9 9 11 12 8 7 6 7 6 6 7 6 6 5 4 4 4 4
4 5 4 5 4 4 4 3 3 1 1 1 2 2 3 3 4 6 5 4 5 6 8 11 11 8 7 9 9 7 7 8 8 9 8 9 9 10 12 9 8 7 7 7 7 6 5 5 5 5 4 4 5 5
4 4 4 4 4 4 4 3 3 1 1 1 2 3 5 7 8 7 2 3 5 7 9 9 11 12 7 7 8 8 8 10 8 10 10 9 12 12 10 8 8 7 7 7 6 5 5 5 5 5 5 5 5 5
4 4 4 4 4 4 4 3 3 1 1 1 3 6 9 7 3 3 6 9 9 9 8 9 8 10 7 8 8 8 9 10 12 10 10 12 12 10 7 6 6 7 6 5 6 7 6 6 6 5 5 4 4 4
3 4 4 3 5 4 3 3 3 1 1 4 5 7 6 3 6 8 9 11 12 13 10 8 8 10 7 9 9 7 10 10 13 11 11 13 12 8 6 6 6 6 5 5 4 5 4 4 5 5 5 4 4 4
3 3 3 3 4 4 3 4 3 2 3 3 4 4 5 6 8 9 12 12 13 14 12 10 9 8 9 6 8 8 11 10 13 9 11 13 9 8 6 6 6 6 5 5 5 5 5 5 5 5 5 5 4 4
3 3 3 3 4 3 4 4 3 2 2 3 4 6 8 8 12 12 14 13 13 11 11 11 10 9 7 7 9 9 12 12 8 11 12 11 9 7 6 6 6 5 5 5 6 5 6 6 6 5 6 6 5 4
2 2 2 3 4 3 4 4 3 2 3 7 8 12 10 11 10 11 11 11 10 11 11 11 10 9 7 9 9 12 10 9 13 15 13 9 8 6 6 5 5 6 5 6 7 6 6 6 6 5 5 5 5 5
2 2 2 4 4 3 4 4 4 4 5 7 7 12 10 8 10 9 8 9 10 10 9 9 9 8 9 10 9 10 12 13 12 12 10 8 6 6 6 6 6 7 7 7 7 7 7 6 6 6 6 6 5 5
3 3 5 4 5 4 4 5 5 5 6 8 8 9 9 10 11 10 10 9 8 10 9 9 9 11 11 10 11 12 13 13 11 9 7 6 6 6 5 7 7 7 7 8 7 7 7 6 6 6 6 5 5 5
4 8 4 3 3 3 3 5 6 7 8 10 9 7 9 9 10 9 9 9 9 10 11 9 11 11 9 12 13 10 11 9 8 7 7 6 6 6 7 8 7 7 7 7 7 7 7 7 6 7 7 6 6 6
8 7 3 2 3 3 4 5 7 8 10 9 10 9 8 8 8 8 7 8 9 10 8 10 8 12 12 13 12 9 9 7 7 7 7 6 6 6 7 7 7 7 7 7 7 7 7 7 7 6 6 6 6 6
5 4 1 1 3 4 6 6 6 10 9 8 8 8 7 7 7 6 7 7 9 7 6 8 10 11 10 9 9 8 7 7 7 7 7 7 6 6 6 6 6 6 7 7 6 6 6 6 6 7 7 7 7 6
1 1 1 1 1 5 7 7 5 8 9 8 7 7 6 7 6 6 7 7 6 7 9 9 9 9 8 7 6 6 6 6 7 7 7 7 6 6 6 6 6 6 6 6 7 8 7 7 7 7 6 7 7 6
2 2 0 1 2 3 4 5 6 6 6 7 6 6 7 6 7 7 8 7 8 9 9 7 7 6 5 5 4 5 5 6 7 7 6 7 5 5 5 5 5 6 6 7 6 7 7 6 7 7 7 7 6 6
1 0 3 2 4 4 5 4 6 5 6 7 7 7 8 9 8 8 7 8 8 8 6 6 6 6 5 5 5 4 4 5 5 6 7 6 6 6 6 6 6 6 6 6 5 6 6 6 6 6 6 6 7 6
1 1 3 3 6 7 7 3 7 7 9 9 8 9 9 9 7 5 8 8 8 5 5 5 5 4 5 4 4 4 4 5 6 6 5 5 5 5 5 5 5 6 6 6 5 5 5 7 7 6 6 6 6 6
2 5 7 7 7 9 6 8 6 8 8 9 10 10 9 8 6 8 10 9 7 6 5 5 4 5 5 4 5 5 4 5 5 5 5 5 6 6 5 5 4 4 4 5 5 5 5 6 7 6 5 5 5 5
9 9 9 11 8 10 10 9 9 9 11 9 10 10 9 7 10 10 10 8 7 7 7 6 5 5 6 5 6 5 5 5 5 5 5 5 6 6 5 4 4 4 5 5 6 6 6 6 5 5 5 5 5 5
11 9 11 10 10 10 9 11 10 10 9 10 9 8 8 9 11 11 9 8 8 7 7 6 6 6 6 6 6 6 5 5 5 5 5 4 4 5 5 5 5 4 4 4 5 5 6 6 5 5 5 6 9 5
12 10 9 7 8 8 8 8 7 9 10 10 9 9 10 12 12 9 7 7 7 6 6 6 5 5 5 5 6 5 5 5 5 5 5 4 4 3 4 4 5 3 3 4 4 4 5 5 5 5 5 4 3 4
9 9 10 9 9 8 10 10 10 10 10 9 9 11 11 11 10 8 7 6 7 6 6 5 5 4 5 5 5 5 5 5 4 4 4 4 4 3 3 2 2 7 3 3 3 3 3 4 4 4 4 4 4 3
11 9 9 10 10 10 10 10 10 9 8 9 10 10 9 8 6 7 7 6 5 5 5 5 5 5 5 5 5 5 4 4 5 6 6 6 5 5 3 3 3 3 2 3 10 6 3 3 3 4 3 3 3 3
10 9 10 10 11 12 10 9 9 8 8 8 7 8 8 8 7 7 6 6 6 6 5 5 5 5 5 5 5 5 4 4 4 5 6 6 5 4 3 3 3 2 3 4 4 5 10 5 6 3 3 3 3 3
9 9 10 10 11 10 9 9 8 8 8 8 8 8 9 8 7 6 6 6 6 5 5 6 6 5 5 5 5 5 5 4 3 3 3 4 3 3 3 3 3 3 3 3 4 4 4 4 4 4 4 4 4 5
9 9 10 11 10 8 8 9 9 9 9 9 9 8 8 9 9 8 6 6 5 6 8 6 5 5 4 4 4 4 8 3 3 2 2 3 3 2 2 3 3 3 3 4 4 4 4 5 5 5 4 4 4 4
9 9 9 9 9 9 8 9 9 9 9 9 9 8 8 8 9 7 5 5 4 4 4 4 4 4 3 3 4 4 6 3 6 11 10 10 8 6 3 3 3 3 3 3 4 4 4 4 4 4 3 3 3 3